{"data":{"norad_id":60498,"intl_designator":"2024-149AG","name":"NUSAT-48 (HENRIETTA LE*)","alt_names":[],"object_type":"PAYLOAD","status":"ACTIVE","operator":null,"country":"ARGN","launch_date":"2024-08-16","launch_site_code":"AFWTR","launch_vehicle":null,"mission":null,"orbit_class":"UNKNOWN","rcs_meters":null,"size_class":null,"mass_kg":null,"dimensions":null,"purposes":[],"wikipedia_slug":null,"has_3d_model":false,"image_url":null,"decayed_at":null,"tle_current":{"epoch":"2026-09-22T17:35:16.798848Z","epoch_age_seconds":93399,"freshness":"FRESH","line1":"1 60498U 24149AG  26265.73283332  .00005831  00000+0  20370-3 0  9990","line2":"2 60498  97.3864 346.7118 0001656 295.8999  64.2071 15.29955593117052","mean_motion":15.29955593,"eccentricity":0.0001656,"inclination_deg":97.3864,"raan_deg":346.7118,"arg_perigee_deg":295.8999,"mean_anomaly_deg":64.2071,"bstar":0.0002037,"rev_number":11705,"period_min":94.120378825923,"perigee_km":474.80988584601,"apogee_km":477.07995777851,"semimajor_km":6854.0819218123,"source":"CELESTRAK","updated_at":"2026-09-23T09:00:20.658344Z"}}}